1508814000.96,25043,8.63,73094.0,-5.87,-6.73,-6.69,0,*51
1508814002.18,25044,8.63,73088.8,-5.89,-6.73,-6.69,0,*58
1508814003.38,25045,8.63,73090.3,-5.87,-6.81,-6.73,0,*51
1508814004.59,25046,8.63,73106.5,-5.87,-6.81,-6.81,0,*5F
1508814005.79,25047,8.63,73102.8,-5.87,-6.73,-6.73,0,*5E
1508814007.01,25048,8.63,73098.5,-5.89,-6.81,-6.73,0,*52
1508814008.21,25049,8.63,73088.5,-5.87,-6.73,-6.73,0,*50
1508814009.4,25050,8.63,73088.3,-5.87,-6.73,-6.73,0,*58
1508814010.61,25051,8.63,73092.3,-5.87,-6.81,-6.81,0,*59
1508814011.81,25052,8.63,73092.0,-5.87,-6.85,-6.85,0,*5A
1508814013.0,25053,8.63,73108.5,-5.87,-6.85,-6.85,0,*5B
1508814014.23,25054,8.63,73086.5,-5.87,-6.85,-6.93,0,*5B
1508814015.42,25055,8.63,73096.0,-5.87,-6.73,-6.85,0,*54
1508814016.62,25056,8.63,73104.0,-5.87,-6.81,-6.73,0,*53
1508814017.82,25057,8.63,73106.8,-5.87,-6.81,-6.73,0,*52
1508814019.03,25058,8.63,73124.0,-5.87,-6.81,-6.73,0,*5D
1508814020.22,25059,8.63,73106.0,-5.87,-6.85,-6.85,0,*51
1508814021.45,25060,8.63,73106.0,-5.87,-6.85,-6.93,0,*5C
1508814022.65,25061,8.63,73092.0,-5.87,-6.81,-6.85,0,*5E
1508814023.85,25062,8.63,73092.5,-5.87,-6.85,-6.81,0,*5D
1508814025.05,25063,8.63,73110.0,-5.87,-6.85,-6.85,0,*58
1508814026.27,25064,8.63,73110.8,-5.87,-6.85,-6.93,0,*58
1508814027.54,25065,8.63,73112.0,-5.89,-6.93,-6.93,0,*50
1508814028.79,25066,8.63,73112.0,-5.87,-6.93,-6.97,0,*59
1508814030.03,25067,8.63,73110.0,-5.87,-7.05,-7.05,0,*5C
1508814031.3,25068,8.63,73122.0,-5.89,-7.05,-7.05,0,*5D
1508814032.57,25069,8.63,73130.5,-5.89,-6.93,-6.93,0,*5C
1508814033.82,25070,8.63,73116.8,-5.87,-6.93,-6.97,0,*5E
1508814035.1,25071,8.63,73118.5,-5.89,-6.93,-6.97,0,*51
1508814036.32,25072,8.63,73128.0,-5.87,-6.81,-6.93,0,*5B
1508814037.58,25073,8.63,73124.5,-5.87,-6.93,-6.97,0,*5D
1508814038.82,25074,8.63,73124.0,-5.85,-7.01,-7.15,0,*59
1508814040.08,25075,8.63,73124.0,-5.85,-7.05,-7.05,0,*5D
1508814041.33,25076,8.63,73132.8,-5.87,-6.97,-6.93,0,*58
1508814042.58,25077,8.63,73124.8,-5.87,-6.97,-7.05,0,*57
1508814043.83,25078,8.63,73124.3,-5.87,-6.93,-6.93,0,*52
1508814045.05,25079,8.63,73128.5,-5.85,-6.77,-6.81,0,*58
1508814046.3,25080,8.63,73134.3,-5.87,-6.93,-6.97,0,*51
1508814047.56,25081,8.63,73140.8,-5.87,-6.97,-6.97,0,*54
1508814048.8,25082,8.63,73134.0,-5.87,-6.97,-7.05,0,*5D
1508814050.06,25083,8.63,73122.8,-5.89,-7.05,-7.05,0,*58
1508814051.31,25084,8.63,73120.3,-5.87,-6.97,-7.05,0,*5B
1508814052.56,25085,8.63,73118.8,-5.87,-6.97,-6.97,0,*50
1508814053.81,25086,8.63,73130.5,-5.87,-6.97,-6.97,0,*53
1508814055.0,25087,8.63,73138.8,-5.87,-6.85,-6.85,0,*52
1508814056.21,25088,8.63,73120.3,-5.87,-6.85,-6.81,0,*59
1508814057.41,25089,8.63,73118.5,-5.87,-6.73,-6.81,0,*51
1508814058.66,25090,8.63,73102.8,-5.87,-6.93,-6.93,0,*54
1508814059.91,25091,8.63,73102.5,-5.87,-6.97,-6.97,0,*55
1508814061.16,25092,8.63,73096.3,-5.87,-6.97,-7.05,0,*5C
1508814062.41,25093,8.63,73104.0,-5.89,-7.05,-7.23,0,*5D
1508814063.61,25094,8.63,73096.5,-5.87,-7.19,-7.23,0,*59
1508814064.83,25095,8.63,73092.0,-5.85,-7.15,-7.15,0,*53
1508814066.06,25096,8.63,73108.3,-5.89,-7.23,-7.23,0,*5C
1508814067.27,25097,8.63,73120.5,-5.87,-7.11,-7.23,0,*52
1508814068.52,25098,8.63,73116.0,-5.89,-6.97,-7.19,0,*55
1508814069.73,25099,8.63,73126.5,-5.87,-7.11,-7.23,0,*5C
1508814070.95,25100,8.63,73120.8,-5.89,-7.23,-7.23,0,*52
1508814072.16,25101,8.63,73122.0,-5.87,-7.19,-7.23,0,*54
1508814073.43,25102,8.63,73124.3,-5.89,-6.97,-6.97,0,*50
1508814074.7,25103,8.63,73122.5,-5.89,-7.05,-7.05,0,*51
1508814075.92,25104,8.63,73140.0,-5.87,-7.11,-7.05,0,*5D
1508814077.19,25105,8.63,73124.0,-5.89,-6.97,-6.97,0,*57
1508814078.47,25106,8.63,73124.0,-5.89,-6.93,-6.97,0,*50
1508814079.71,25107,8.63,73120.0,-5.89,-6.85,-6.93,0,*52
1508814080.98,25108,8.63,73138.0,-5.89,-6.93,-6.97,0,*5E
1508814082.22,25109,8.63,73130.0,-5.89,-6.81,-6.81,0,*5B
1508814083.44,25110,8.63,73052.3,-5.89,-6.73,-6.73,0,*53
1508814084.69,25111,8.63,73110.5,-5.87,-6.93,-6.97,0,*58
1508814085.93,25112,8.63,73096.5,-5.89,-6.85,-6.93,0,*56
1508814087.15,25113,8.63,73096.3,-5.89,-6.73,-6.73,0,*50
1508814088.35,25114,8.63,73088.5,-5.87,-6.73,-6.73,0,*59
1508814089.58,25115,8.63,73100.0,-5.89,-6.73,-6.81,0,*5B
1508814090.8,25116,8.63,73094.0,-5.89,-6.73,-6.73,0,*55
1508814091.99,25117,8.63,73090.5,-5.87,-6.73,-6.73,0,*5A
1508814093.21,25118,8.63,73106.8,-5.89,-6.73,-6.73,0,*5B
1508814094.43,25119,8.63,73116.3,-5.89,-6.73,-6.73,0,*5A
1508814095.63,25120,8.63,73100.3,-5.87,-6.73,-6.73,0,*5E
1508814096.85,25121,8.63,73096.5,-5.89,-6.81,-6.85,0,*55
1508814098.08,25122,8.63,73088.8,-5.87,-6.81,-6.93,0,*5F
1508814099.31,25123,8.63,73122.5,-5.87,-6.81,-6.93,0,*5E
1508814100.5,25124,8.63,73074.0,-5.87,-6.85,-6.85,0,*5A
1508814101.73,25125,8.63,73104.0,-5.87,-6.93,-6.85,0,*5C
1508814102.95,25126,8.63,73110.3,-5.89,-6.81,-6.85,0,*52
1508814104.15,25127,8.63,73124.0,-5.87,-6.73,-6.85,0,*50
1508814105.35,25128,8.63,73100.5,-5.87,-6.73,-6.73,0,*56
1508814106.55,25129,8.63,73094.0,-5.87,-6.81,-6.81,0,*57
1508814107.8,25130,8.63,73090.0,-5.87,-6.97,-6.97,0,*5F
1508814109.0,25131,8.63,73094.8,-5.87,-6.85,-6.85,0,*5E
1508814110.22,25132,8.63,73106.5,-5.87,-6.85,-6.93,0,*5A
1508814111.42,25133,8.63,73104.0,-5.87,-6.85,-6.85,0,*5C
1508814112.64,25134,8.63,73100.0,-5.89,-6.85,-6.85,0,*55
1508814113.92,25135,8.63,73104.0,-5.89,-6.93,-6.93,0,*54
1508814115.12,25136,8.63,73116.3,-5.87,-6.81,-6.85,0,*5D
1508814116.32,25137,8.63,73114.0,-5.87,-6.73,-6.81,0,*55
1508814117.52,25138,8.63,73122.0,-5.87,-6.85,-6.73,0,*5E
1508814118.72,25139,8.63,73116.5,-5.87,-6.81,-6.81,0,*56
1508814119.92,25140,8.63,73116.8,-5.87,-6.85,-6.85,0,*58
1508814121.17,25141,8.63,73122.0,-5.87,-6.93,-6.97,0,*5D
1508814122.42,25142,8.63,73146.0,-5.87,-6.93,-6.97,0,*5E
1508814123.67,25143,8.63,73140.5,-5.89,-6.85,-6.93,0,*52
1508814124.87,25144,8.63,73128.0,-5.87,-6.81,-6.85,0,*58
1508814126.1,25145,8.63,73124.5,-5.87,-6.81,-6.97,0,*5A
1508814127.32,25146,8.63,73136.3,-5.87,-6.85,-6.93,0,*59
1508814128.54,25147,8.63,73132.8,-5.87,-6.85,-6.93,0,*58
1508814129.81,25148,8.63,73128.5,-5.89,-6.93,-6.97,0,*5A
1508814131.09,25149,8.63,73140.8,-5.89,-6.97,-6.97,0,*5F
1508814132.33,25150,8.63,73142.5,-5.87,-6.97,-7.05,0,*53
1508814133.56,25151,8.63,73116.5,-5.87,-7.05,-7.19,0,*55
1508814134.81,25152,8.63,73124.5,-5.89,-6.97,-7.19,0,*52
1508814136.05,25153,8.63,73134.5,-5.87,-7.05,-6.97,0,*50
1508814137.33,25154,8.63,73138.0,-5.89,-6.93,-6.97,0,*57
1508814138.57,25155,8.63,73128.5,-5.87,-6.93,-7.05,0,*52
1508814139.8,25156,8.63,73126.0,-5.87,-6.97,-7.11,0,*50
1508814141.02,25157,8.63,73112.5,-5.85,-7.15,-7.15,0,*5C
1508814142.23,25158,8.63,73120.0,-5.87,-7.11,-7.23,0,*50
1508814143.46,25159,8.63,73124.8,-5.87,-7.05,-7.11,0,*55
1508814144.71,25160,8.63,73130.5,-5.89,-7.05,-7.11,0,*51
1508814145.98,25161,8.63,73098.0,-5.89,-7.05,-6.97,0,*5F
1508814147.23,25162,8.63,73114.5,-5.87,-6.97,-6.97,0,*58
1508814148.47,25163,8.63,73116.3,-5.87,-6.97,-7.05,0,*53
1508814149.72,25164,8.63,73116.5,-5.89,-6.85,-6.97,0,*53
1508814150.96,25165,8.63,73118.0,-5.89,-6.85,-7.05,0,*58
1508814152.19,25166,8.63,73118.8,-5.89,-7.11,-7.11,0,*52
1508814153.46,25167,8.63,73120.0,-5.89,-7.05,-6.97,0,*59
1508814154.71,25168,8.63,73112.0,-5.87,-6.93,-6.97,0,*56
1508814155.93,25169,8.63,73122.3,-5.89,-6.85,-6.85,0,*5D
1508814157.15,25170,8.63,73110.3,-5.87,-6.85,-6.93,0,*5C
1508814158.4,25171,8.63,73092.0,-5.87,-6.93,-7.05,0,*54
1508814159.63,25172,8.63,73092.5,-5.87,-6.97,-7.11,0,*56
1508814160.88,25173,8.63,73092.3,-5.87,-6.93,-6.97,0,*5C
1508814162.13,25174,8.63,73086.3,-5.89,-7.05,-7.19,0,*5C
1508814163.37,25175,8.63,73108.0,-5.87,-7.05,-7.05,0,*5E
1508814164.6,25176,8.56,73106.5,-5.87,-6.97,-7.11,0,*52
1508814165.83,25177,8.63,73108.0,-5.87,-7.05,-7.11,0,*59
1508814167.08,25178,8.63,73104.0,-5.89,-7.05,-7.11,0,*58
1508814168.32,25179,8.63,73078.3,-5.87,-6.97,-7.05,0,*58
1508814169.55,25180,8.56,73080.3,-5.89,-7.11,-7.23,0,*5B
1508814170.77,25181,8.63,73090.5,-5.85,-7.15,-7.19,0,*5B
1508814172.05,25182,8.56,73086.5,-5.89,-7.31,-7.43,0,*5D
1508814173.32,25183,8.63,73074.0,-5.89,-7.31,-7.43,0,*5C
1508814174.57,25184,8.63,73082.3,-5.89,-7.23,-7.35,0,*59
1508814175.81,25185,8.63,73076.5,-5.87,-7.31,-7.35,0,*55
1508814177.04,25186,8.63,73086.0,-5.89,-7.19,-7.23,0,*55
1508814178.27,25187,8.63,73080.8,-5.89,-7.19,-7.19,0,*5D
1508814179.48,25188,8.56,73078.3,-5.87,-7.11,-7.23,0,*5D
1508814180.68,25189,8.63,73072.0,-5.87,-7.11,-7.19,0,*55
1508814181.94,25190,8.63,73056.0,-5.89,-7.19,-7.31,0,*51
1508814183.19,25191,8.63,73066.5,-5.89,-7.19,-7.31,0,*50
1508814184.44,25192,8.56,73068.0,-5.89,-7.23,-7.35,0,*5E
1508814185.71,25193,8.63,73088.8,-5.89,-7.31,-7.35,0,*5C
1508814186.95,25194,8.63,73098.5,-5.89,-7.23,-7.35,0,*58
1508814188.2,25195,8.63,73060.8,-5.91,-7.27,-7.35,0,*54
1508814189.45,25196,8.63,73070.3,-5.91,-7.35,-7.39,0,*58
1508814190.65,25197,8.63,73044.8,-5.91,-7.15,-7.23,0,*50
1508814191.9,25198,8.63,73060.8,-5.91,-7.27,-7.35,0,*59
1508814193.11,25199,8.63,73060.5,-5.91,-7.11,-7.23,0,*5A
1508814194.33,25200,8.63,73066.5,-5.91,-7.15,-7.27,0,*59
1508814195.58,25201,8.63,73072.3,-5.91,-7.27,-7.35,0,*5A
1508814196.81,25202,8.63,73086.0,-5.91,-7.15,-7.27,0,*5B
1508814198.05,25203,8.63,73104.8,-5.91,-7.01,-7.01,0,*5B
1508814199.31,25204,8.63,73132.0,-5.93,-7.19,-7.27,0,*53
1508814200.54,25205,8.63,73076.8,-5.91,-7.23,-7.27,0,*59
1508814201.76,25206,8.63,73112.0,-5.91,-7.15,-7.27,0,*5F
1508814202.99,25207,8.63,73076.8,-5.91,-7.23,-7.27,0,*5B
1508814204.23,25208,8.63,73066.0,-5.91,-7.27,-7.39,0,*5F
1508814205.51,25209,8.63,73076.3,-5.93,-7.27,-7.31,0,*54
1508814206.76,25210,8.56,73066.0,-5.93,-7.19,-7.31,0,*51
1508814207.99,25211,8.63,73102.5,-5.93,-7.19,-7.19,0,*5A
1508814209.25,25212,8.63,73084.8,-5.93,-7.15,-7.27,0,*58
1508814210.48,25213,8.63,73080.0,-5.93,-7.19,-7.19,0,*58
1508814211.73,25214,8.63,73090.0,-5.93,-7.15,-7.27,0,*5E
1508814213.0,25215,8.63,73098.8,-5.93,-7.27,-7.31,0,*59
1508814214.25,25216,8.63,73100.5,-5.91,-7.01,-7.01,0,*5F
1508814215.47,25217,8.56,73090.8,-5.91,-6.89,-7.01,0,*5F
1508814216.7,25218,8.63,73090.8,-5.91,-7.01,-7.11,0,*50
1508814217.95,25219,8.56,73070.5,-5.93,-7.05,-7.15,0,*53
1508814219.15,25220,8.63,73144.3,-5.91,-7.15,-7.15,0,*5A
1508814220.36,25221,8.63,73082.8,-5.91,-7.23,-7.15,0,*5E
1508814221.56,25222,8.63,73078.5,-5.91,-7.11,-7.15,0,*5C
1508814222.77,25223,8.63,73094.8,-5.91,-7.11,-7.11,0,*59
1508814224.02,25224,8.63,73092.3,-5.93,-7.05,-7.15,0,*5D
1508814225.29,25225,8.56,73094.5,-5.93,-7.05,-7.05,0,*5D
1508814226.56,25226,8.63,73108.0,-5.93,-6.93,-6.93,0,*5E
1508814227.76,25227,8.56,73112.5,-5.91,-6.85,-6.89,0,*51
1508814229.01,25228,8.63,73102.3,-5.91,-6.97,-7.01,0,*5C
1508814230.24,25229,8.63,73110.8,-5.91,-7.01,-7.15,0,*56
1508814231.51,25230,8.63,73108.8,-5.93,-6.93,-7.01,0,*53
1508814232.76,25231,8.63,73118.8,-5.91,-6.97,-7.01,0,*54
1508814233.99,25232,8.63,73102.0,-5.91,-6.93,-6.89,0,*52
1508814235.19,25233,8.63,73102.5,-5.91,-6.89,-6.89,0,*58
1508814236.41,25234,8.56,73114.0,-5.91,-6.89,-6.97,0,*50
1508814237.61,25235,8.63,73124.5,-5.91,-6.85,-6.89,0,*52
1508814238.81,25236,8.63,73132.8,-5.91,-6.85,-6.77,0,*50
1508814240.03,25237,8.63,73112.8,-5.93,-6.89,-6.89,0,*5E
1508814241.23,25238,8.56,73130.8,-5.91,-6.89,-6.89,0,*53
1508814242.48,25239,8.56,73136.3,-5.93,-6.93,-6.89,0,*5B
1508814243.73,25240,8.63,73138.5,-5.93,-6.89,-6.93,0,*55
1508814245.01,25241,8.63,73144.3,-5.93,-6.93,-6.93,0,*5F
1508814246.21,25242,8.63,73156.3,-5.91,-6.89,-6.89,0,*5E
1508814247.43,25243,8.56,73138.5,-5.91,-7.01,-6.89,0,*5E
1508814248.66,25244,8.63,73120.5,-5.91,-6.89,-6.97,0,*57
1508814249.88,25245,8.63,73122.8,-5.91,-6.89,-6.97,0,*56
1508814251.13,25246,8.63,73110.8,-5.91,-6.97,-6.97,0,*5A
1508814252.36,25247,8.56,73104.5,-5.91,-6.97,-7.11,0,*54
1508814253.61,25248,8.63,73072.5,-5.91,-7.01,-7.01,0,*54
1508814254.88,25249,8.63,73102.8,-5.93,-7.01,-7.01,0,*57
1508814256.09,25250,8.63,73084.0,-5.91,-7.11,-7.11,0,*5D
1508814257.36,25251,8.63,73130.8,-5.93,-7.05,-7.05,0,*5E
1508814258.55,25252,8.63,73102.0,-5.91,-6.89,-6.89,0,*5F
1508814259.76,25253,8.63,73122.8,-5.91,-6.77,-6.77,0,*5E
1508814260.96,25254,8.63,73120.5,-5.91,-6.77,-6.77,0,*59
1508814262.15,25255,8.63,73116.3,-5.91,-6.73,-6.73,0,*58
1508814263.38,25256,8.63,73110.0,-5.93,-6.89,-6.89,0,*59
1508814264.6,25257,8.56,73096.5,-5.89,-6.81,-6.85,0,*57
1508814265.8,25258,8.56,73092.8,-5.91,-6.77,-6.85,0,*58
1508814267.0,25259,8.63,73122.5,-5.91,-6.85,-6.85,0,*54
1508814268.2,25260,8.56,73106.3,-5.91,-6.77,-6.77,0,*5E
1508814269.42,25261,8.56,73082.5,-5.89,-6.69,-6.69,0,*56
1508814270.64,25262,8.63,73130.0,-5.89,-6.81,-6.73,0,*58
1508814271.86,25263,8.63,73132.5,-5.89,-6.73,-6.85,0,*5D
1508814273.08,25264,8.63,73128.0,-5.89,-6.73,-6.73,0,*53
1508814274.3,25265,8.63,73128.3,-5.89,-6.73,-6.73,0,*52
1508814275.52,25266,8.63,73118.3,-5.89,-6.73,-6.73,0,*51
1508814276.74,25267,8.56,73124.8,-5.89,-6.73,-6.73,0,*50
1508814277.97,25268,8.63,73128.5,-5.89,-6.73,-6.81,0,*52
1508814279.19,25269,8.56,73104.0,-5.89,-6.73,-6.73,0,*5E
1508814280.4,25270,8.63,73118.0,-5.89,-6.69,-6.73,0,*5D
1508814281.65,25271,8.56,73142.3,-5.89,-6.81,-6.93,0,*54
1508814282.88,25272,8.63,73092.0,-5.89,-6.81,-6.85,0,*50
1508814284.15,25273,8.63,73096.0,-5.89,-6.93,-6.93,0,*55
1508814285.43,25274,8.56,73094.0,-5.89,-6.93,-6.97,0,*56
1508814286.69,25275,8.56,73138.0,-5.89,-6.97,-7.05,0,*59
1508814287.97,25276,8.56,73140.3,-5.89,-6.93,-6.97,0,*54
1508814289.24,25277,8.63,73122.8,-5.89,-6.93,-6.93,0,*51
1508814290.52,25278,8.63,73088.0,-5.89,-6.97,-6.97,0,*5E
1508814291.79,25279,8.63,73074.5,-5.89,-7.05,-6.97,0,*55
1508814293.05,25280,8.63,73108.0,-5.89,-7.05,-7.05,0,*59
1508814294.3,25281,8.63,73074.5,-5.89,-7.11,-7.05,0,*5D
1508814295.52,25282,8.56,73082.0,-5.89,-7.19,-7.19,0,*5B
1508814296.79,25283,8.63,73052.8,-5.89,-6.97,-7.05,0,*50
1508814298.07,25284,8.63,73134.5,-5.89,-6.93,-6.93,0,*5D
1508814299.28,25285,8.63,73084.5,-5.89,-6.73,-6.73,0,*5C
1508814300.5,25286,8.56,73082.0,-5.89,-6.69,-6.69,0,*5F
1508814301.71,25287,8.56,73118.0,-5.89,-6.69,-6.69,0,*5E
1508814302.91,25288,8.56,73052.0,-5.91,-6.73,-6.73,0,*58
1508814304.12,25289,8.56,73060.5,-5.89,-6.69,-6.69,0,*50
1508814305.35,25290,8.56,73060.3,-5.89,-6.73,-6.81,0,*55
1508814306.58,25291,8.56,73050.8,-5.89,-6.73,-6.81,0,*54
1508814307.8,25292,8.56,73052.3,-5.89,-6.81,-6.73,0,*57
1508814309.01,25293,8.63,73088.8,-5.89,-6.69,-6.69,0,*5B
1508814310.24,25294,8.63,73118.5,-5.89,-6.73,-6.81,0,*51
1508814311.47,25295,8.63,73112.8,-5.89,-6.81,-6.81,0,*5D
1508814312.69,25296,8.63,73072.8,-5.89,-6.85,-6.85,0,*5E
1508814313.91,25297,8.63,73076.3,-5.89,-6.73,-6.73,0,*5F
1508814315.12,25298,8.63,73078.0,-5.87,-6.81,-6.81,0,*5E
1508814316.33,25299,8.63,73064.8,-5.87,-6.81,-6.81,0,*5F
1508814317.54,25300,8.56,73058.0,-5.89,-6.69,-6.73,0,*5B
1508814318.79,25301,8.63,73074.0,-5.89,-6.55,-6.63,0,*54
1508814320.06,25302,8.56,73078.3,-5.89,-6.63,-6.63,0,*52
1508814321.26,25303,8.63,73070.5,-5.87,-6.55,-6.51,0,*59
1508814322.46,25304,8.56,73068.0,-5.87,-6.55,-6.43,0,*5D
1508814323.69,25305,8.63,73080.5,-5.89,-6.51,-6.39,0,*5B
1508814324.89,25306,8.56,73086.8,-5.87,-6.55,-6.43,0,*5F
1508814326.09,25307,8.56,73090.8,-5.87,-6.55,-6.55,0,*59
1508814327.28,25308,8.56,73082.8,-5.87,-6.69,-6.69,0,*56
1508814328.48,25309,8.63,73114.5,-5.87,-6.55,-6.51,0,*53
1508814329.68,25310,8.56,73098.5,-5.87,-6.55,-6.55,0,*5F
1508814330.91,25311,8.56,73106.8,-5.89,-6.55,-6.55,0,*50
1508814332.1,25312,8.63,73110.8,-5.87,-6.69,-6.69,0,*5D
1508814333.29,25313,8.63,73120.8,-5.87,-6.69,-6.69,0,*5C
1508814334.53,25314,8.56,73096.0,-5.87,-6.63,-6.63,0,*5B
1508814335.78,25315,8.56,73104.8,-5.87,-6.63,-6.63,0,*5A
1508814337.0,25316,8.63,73104.8,-5.89,-6.51,-6.43,0,*54
1508814338.21,25317,8.56,73098.5,-5.87,-6.51,-6.51,0,*58
1508814339.46,25318,8.56,73124.8,-5.89,-6.55,-6.63,0,*5C
1508814340.68,25319,8.63,73106.8,-5.89,-6.55,-6.51,0,*5C
1508814341.89,25320,8.63,73128.0,-5.87,-6.51,-6.51,0,*5C
1508814343.09,25321,8.56,73118.5,-5.87,-6.51,-6.43,0,*5E
1508814344.32,25322,8.56,73106.0,-5.89,-6.55,-6.55,0,*50
1508814345.56,25323,8.56,73096.5,-5.89,-6.63,-6.55,0,*54
1508814346.78,25324,8.56,73080.5,-5.87,-6.69,-6.63,0,*52
1508814348.0,25325,8.56,73096.8,-5.87,-6.63,-6.51,0,*58
1508814349.2,25326,8.56,73100.5,-5.87,-6.43,-6.51,0,*59
1508814350.4,25327,8.56,73098.3,-5.87,-6.55,-6.55,0,*5B
1508814351.61,25328,8.63,73106.0,-5.87,-6.55,-6.55,0,*54
1508814352.81,25329,8.56,73106.0,-5.87,-6.51,-6.43,0,*56
1508814354.03,25330,8.56,73098.3,-5.89,-6.55,-6.51,0,*57
1508814355.26,25331,8.56,73096.5,-5.89,-6.55,-6.51,0,*56
1508814356.46,25332,8.56,73108.5,-5.87,-6.55,-6.55,0,*5F
1508814357.68,25333,8.56,73096.8,-5.87,-6.63,-6.55,0,*5B
1508814358.9,25334,8.56,73088.0,-5.89,-6.69,-6.55,0,*58
1508814360.11,25335,8.56,73086.3,-5.87,-6.63,-6.69,0,*52
1508814361.3,25336,8.56,73086.8,-5.87,-6.69,-6.69,0,*5B
1508814362.5,25337,8.56,73082.3,-5.87,-6.73,-6.69,0,*51
1508814363.7,25338,8.56,73068.8,-5.87,-6.81,-6.81,0,*55
1508814364.91,25339,8.56,73088.5,-5.87,-6.85,-6.81,0,*50
1508814366.16,25340,8.56,73068.0,-5.87,-6.93,-6.93,0,*5A
1508814367.36,25341,8.56,73080.8,-5.87,-6.85,-6.85,0,*5B
1508814368.56,25342,8.56,73104.0,-5.87,-6.81,-6.85,0,*5C
1508814369.76,25343,8.56,73102.5,-5.87,-6.85,-6.85,0,*59
1508814370.96,25344,8.56,73078.3,-5.87,-6.81,-6.81,0,*5E
1508814372.19,25345,8.56,73082.8,-5.87,-6.93,-6.85,0,*58
1508814373.39,25346,8.63,73092.8,-5.87,-6.85,-6.81,0,*58
1508814374.59,25347,8.56,73110.8,-5.87,-6.81,-6.73,0,*50
1508814375.8,25348,8.63,73088.0,-5.87,-6.81,-6.81,0,*52
1508814377.0,25349,8.56,73098.5,-5.87,-6.85,-6.85,0,*53
1508814378.2,25350,8.56,73078.0,-5.87,-6.85,-6.81,0,*5F
1508814379.45,25351,8.56,73082.0,-5.89,-6.85,-6.93,0,*53
1508814380.7,25352,8.56,73094.5,-5.89,-6.93,-6.85,0,*50
1508814381.9,25353,8.56,73092.8,-5.87,-6.81,-6.73,0,*55
1508814383.13,25354,8.56,73092.3,-5.89,-6.81,-6.81,0,*51
1508814384.35,25355,8.56,73108.5,-5.87,-6.85,-6.93,0,*59
1508814385.57,25356,8.56,73104.5,-5.89,-6.81,-6.85,0,*57
1508814386.78,25357,8.56,73104.3,-5.87,-6.81,-6.85,0,*58
1508814387.98,25358,8.56,73096.0,-5.87,-6.73,-6.81,0,*5E
1508814389.24,25359,8.56,73088.8,-5.89,-6.93,-6.81,0,*5F
1508814390.46,25360,8.56,73092.5,-5.87,-6.85,-6.93,0,*5F
1508814391.68,25361,8.63,73094.3,-5.87,-6.81,-6.93,0,*5A
1508814392.93,25362,8.56,73104.0,-5.87,-6.93,-6.97,0,*5E
1508814394.15,25363,8.56,73120.5,-5.89,-6.85,-6.85,0,*55
1508814395.36,25364,8.56,73118.0,-5.87,-6.81,-6.85,0,*58
1508814396.56,25365,8.56,73120.5,-5.87,-6.81,-6.85,0,*59
1508814397.75,25366,8.63,73136.5,-5.87,-6.73,-6.73,0,*5E
1508814398.97,25367,8.56,73126.5,-5.89,-6.73,-6.73,0,*51
1508814400.17,25368,8.56,73124.3,-5.87,-6.73,-6.73,0,*50
1508814401.4,25369,8.56,73124.3,-5.89,-6.73,-6.81,0,*52
1508814402.63,25370,8.56,73136.0,-5.89,-6.81,-6.81,0,*57
1508814403.82,25371,8.56,73128.5,-5.87,-6.73,-6.73,0,*58
1508814405.04,25372,8.56,73132.0,-5.87,-6.69,-6.63,0,*51
1508814406.26,25373,8.56,73136.0,-5.87,-6.63,-6.69,0,*50
1508814407.45,25374,8.56,73136.5,-5.87,-6.69,-6.69,0,*5D
1508814408.66,25375,8.56,73124.5,-5.87,-6.81,-6.81,0,*5C
1508814409.88,25376,8.56,73112.5,-5.87,-6.93,-6.85,0,*58
1508814411.15,25377,8.56,73124.5,-5.89,-6.97,-7.05,0,*5A
1508814412.42,25378,8.56,73112.8,-5.89,-6.93,-7.05,0,*51
1508814413.67,25379,8.56,73114.8,-5.87,-6.93,-6.97,0,*54
1508814414.89,25380,8.56,73104.0,-5.87,-6.85,-6.97,0,*55
1508814416.11,25381,8.56,73122.0,-5.87,-6.85,-6.93,0,*50
1508814417.39,25382,8.56,73106.5,-5.89,-6.93,-6.97,0,*5E
1508814418.64,25383,8.56,73100.5,-5.87,-6.93,-6.97,0,*51
1508814419.89,25384,8.56,73100.8,-5.87,-6.93,-6.97,0,*56
1508814421.1,25385,8.56,73092.8,-5.87,-6.81,-6.81,0,*53
1508814422.3,25386,8.56,73110.8,-5.87,-6.81,-6.81,0,*50
1508814423.53,25387,8.56,73092.3,-5.89,-6.81,-6.81,0,*5F
1508814424.73,25388,8.56,73096.0,-5.87,-6.85,-6.73,0,*57
1508814425.93,25389,8.56,73106.3,-5.87,-6.73,-6.73,0,*5F
1508814427.15,25390,8.63,73110.5,-5.89,-6.73,-6.73,0,*59
1508814428.34,25391,8.56,73108.0,-5.87,-6.73,-6.73,0,*56
1508814429.56,25392,8.56,73092.8,-5.87,-6.63,-6.69,0,*5F
1508814430.8,25393,8.56,73096.8,-5.87,-6.63,-6.63,0,*54
1508814432.03,25394,8.56,73100.3,-5.87,-6.51,-6.63,0,*52
1508814433.22,25395,8.56,73072.0,-5.87,-6.69,-6.69,0,*52
1508814434.41,25396,8.56,73074.8,-5.87,-6.69,-6.73,0,*5A
1508814435.61,25397,8.56,73070.0,-5.87,-6.69,-6.81,0,*56
1508814436.81,25398,8.56,73074.3,-5.87,-6.73,-6.73,0,*5F
1508814438.03,25399,8.56,73082.8,-5.85,-6.69,-6.77,0,*53
1508814439.24,25400,8.56,73082.8,-5.85,-6.69,-6.89,0,*55
1508814440.46,25401,8.56,73038.5,-5.85,-6.77,-6.89,0,*5B
1508814441.68,25402,8.56,73044.8,-5.87,-6.73,-6.93,0,*55
1508814442.88,25403,8.56,73058.8,-5.87,-6.73,-6.73,0,*5A
1508814444.1,25404,8.56,73074.5,-5.87,-6.63,-6.55,0,*58
1508814445.32,25405,8.56,73084.3,-5.87,-6.63,-6.55,0,*59
1508814446.56,25406,8.56,73110.5,-5.87,-6.63,-6.63,0,*5F
1508814447.81,25407,8.56,73112.5,-5.87,-6.63,-6.63,0,*5E
1508814449.07,25408,8.56,73096.0,-5.85,-6.63,-6.63,0,*53
1508814450.31,25409,8.56,73110.3,-5.85,-6.63,-6.59,0,*5B
1508814451.53,25410,8.56,73086.8,-5.85,-6.77,-6.69,0,*55
1508814452.73,25411,8.56,73090.5,-5.87,-6.73,-6.73,0,*59
1508814453.94,25412,8.56,73086.5,-5.85,-6.69,-6.77,0,*57
1508814455.18,25413,8.56,73098.5,-5.85,-6.69,-6.63,0,*53
1508814456.42,25414,8.56,73084.3,-5.85,-6.63,-6.59,0,*57
1508814457.69,25415,8.56,73092.0,-5.85,-6.63,-6.63,0,*5F
1508814458.93,25416,8.56,73094.8,-5.85,-6.63,-6.59,0,*55
1508814460.19,25417,8.56,73088.3,-5.85,-6.63,-6.63,0,*5D
1508814461.46,25418,8.56,73108.5,-5.85,-6.63,-6.63,0,*52
1508814462.69,25419,8.56,73102.8,-5.85,-6.63,-6.69,0,*59
1508814463.9,25420,8.56,73110.8,-5.85,-6.69,-6.69,0,*59
1508814465.17,25421,8.56,73118.8,-5.85,-6.63,-6.63,0,*58
1508814466.4,25422,8.56,73108.5,-5.85,-6.63,-6.69,0,*51
1508814467.66,25423,8.56,73108.0,-5.85,-6.63,-6.63,0,*5A
1508814468.93,25424,8.56,73112.0,-5.85,-6.63,-6.63,0,*5D
1508814470.17,25425,8.56,73092.5,-5.87,-6.63,-6.63,0,*5E
1508814471.39,25426,8.56,73098.8,-5.87,-6.63,-6.55,0,*58
1508814472.58,25427,8.56,73098.3,-5.87,-6.69,-6.73,0,*57
1508814473.79,25428,8.56,73098.5,-5.87,-6.73,-6.81,0,*5E
1508814475.0,25429,8.56,73116.5,-5.85,-6.69,-6.69,0,*50
1508814476.22,25430,8.56,73116.8,-5.85,-6.59,-6.59,0,*58
1508814477.48,25431,8.56,73122.5,-5.85,-6.63,-6.63,0,*59
1508814478.75,25432,8.56,73110.8,-5.85,-6.63,-6.63,0,*5A
1508814479.99,25433,8.63,73124.3,-5.85,-6.69,-6.63,0,*51
1508814481.25,25434,8.56,73100.8,-5.85,-6.63,-6.63,0,*5C
1508814482.49,25435,8.56,73106.8,-5.85,-6.63,-6.59,0,*54
1508814483.76,25436,8.56,73110.8,-5.85,-6.63,-6.63,0,*5E
1508814484.99,25437,8.56,73098.5,-5.85,-6.63,-6.69,0,*55
1508814486.2,25438,8.56,73106.0,-5.83,-6.63,-6.69,0,*5C
1508814487.42,25439,8.56,73108.8,-5.85,-6.69,-6.77,0,*5E
1508814488.64,25440,8.56,73078.0,-5.85,-6.77,-6.77,0,*5F
1508814489.86,25441,8.56,73106.3,-5.85,-6.77,-6.69,0,*51
1508814491.1,25442,8.56,73082.5,-5.85,-6.59,-6.63,0,*54
1508814492.37,25443,8.56,73122.0,-5.85,-6.63,-6.63,0,*5C
1508814493.58,25444,8.56,73128.5,-5.85,-6.69,-6.77,0,*54
1508814494.81,25445,8.56,73104.0,-5.83,-6.81,-6.93,0,*5F
1508814496.01,25446,8.56,73102.3,-5.83,-6.77,-6.81,0,*56
1508814497.23,25447,8.56,73096.8,-5.85,-6.81,-6.89,0,*50
1508814498.45,25448,8.56,73084.5,-5.85,-6.69,-6.81,0,*51
1508814499.66,25449,8.56,73104.3,-5.83,-6.77,-6.81,0,*59
1508814500.88,25450,8.56,73096.0,-5.85,-6.77,-6.77,0,*5E
1508814502.07,25451,8.56,73088.5,-5.83,-6.69,-6.77,0,*56
1508814503.28,25452,8.56,73096.8,-5.85,-6.69,-6.77,0,*53
1508814504.49,25453,8.56,73092.3,-5.83,-6.77,-6.81,0,*52
1508814505.72,25454,8.56,73096.5,-5.85,-6.81,-6.81,0,*5A
1508814506.94,25455,8.56,73102.8,-5.85,-6.77,-6.81,0,*52
1508814508.16,25456,8.56,73100.8,-5.85,-6.69,-6.77,0,*57
1508814509.38,25457,8.56,73102.0,-5.85,-6.81,-6.89,0,*51
1508814510.6,25458,8.56,73116.8,-5.85,-6.77,-6.77,0,*56
1508814511.82,25459,8.56,73096.0,-5.85,-6.77,-6.77,0,*57
1508814513.04,25460,8.56,73094.0,-5.85,-6.69,-6.77,0,*52
1508814514.25,25461,8.56,73100.0,-5.85,-6.69,-6.69,0,*5C
1508814515.47,25462,8.56,73086.3,-5.85,-6.77,-6.69,0,*50
1508814516.66,25463,8.56,73088.0,-5.83,-6.69,-6.77,0,*57
1508814517.88,25464,8.56,73086.3,-5.85,-6.81,-6.89,0,*51